Regional Weather Roundup
Issued by NWS Charleston, SC

Current Version | Previous Version | Text Only | Print | Product List | Glossary Off
Versions: 1 2 3 4 5 6 7 8 9 10 11 12 13 14 15 16 17 18 19 20 21 22 23 24 25 26 27 28 29 30 31 32 33 34 35 36 37 38 39 40 41 42 43 44 45 46 47 48 49 50

000
ASUS42 KCHS 261912
RWRCHS

REGIONAL WEATHER ROUNDUP
NATIONAL WEATHER SERVICE CHARLESTON SC
300 PM EDT SUN MAR 26 2017

NOTE: "FAIR" INDICATES FEW OR NO CLOUDS BELOW 12,000 FEET WITH NO
SIGNIFICANT WEATHER AND/OR OBSTRUCTIONS TO VISIBILITY.

NOT ALL STATIONS ARE QUALITY CONTROLLED. USE DATA WITH CAUTION...
ESPECIALLY DEWPOINT OBSERVATIONS.

SCZ027-030-031-034>040-042>050-262000-
...SOUTHEAST SOUTH CAROLINA...

CITY           SKY/WX    TMP DP  RH WIND       PRES   REMARKS
N CHARLESTON   MOSUNNY   78  52  40 SW9G17    30.16F
WATERFRONT PRK   N/A     69  58  68 S9        30.16F
JOHNS ISLAND   FAIR      75  59  57 SE9       30.17F
PINOPOLIS        N/A     79  54  41 VRB2      30.09F
MONCKS CORNER  CLOUDY    75  48  38 S8        30.15F
SUMMERVILLE    MOCLDY    77  52  41 CALM      30.16F
BEAUFORT MCAS  SUNNY     79  60  52 S10G17    30.15F
BEAUFORT ARPT  FAIR      77  57  50 SE13      30.16F
HILTON HEAD IS NOT AVBL
WALTERBORO     CLOUDY    77  55  47 S15       30.16S
ALLENDALE      CLOUDY    75  55  50 S7G13     30.13S

...SOUTHERN MIDLANDS AND PEE DEE...

CITY           SKY/WX    TMP DP  RH WIND       PRES   REMARKS
GEORGETOWN     CLOUDY    73  52  46 SE13      30.19S
KINGSTREE      MOCLDY    79  50  36 SE5       30.14F
ORANGEBURG     MOSUNNY   78  53  41 S13       30.13F
BARNWELL       MOCLDY    75  59  57 SE7       30.14F
AIKEN          MOCLDY    72  59  64 SE12      30.17F
MANNING        FAIR      77  52  41 SW10      30.14F
COLUMBIA       CLOUDY    78  54  43 S9        30.11F
SUMTER         MOSUNNY   79  53  39 S12       30.11F
FLORENCE       MOSUNNY   78  52  40 SW15      30.15F
MYRTLE BEACH   MOSUNNY   73  55  53 SE13      30.20F
N MYRTLE BEACH MOSUNNY   72  56  57 SE10      30.19F

$$

GAZ063-065-086>088-099>101-113>116-118-119-134>141-150-262000-
...SOUTHEAST GEORGIA...

CITY           SKY/WX    TMP DP  RH WIND       PRES   REMARKS
SAVANNAH ARPT  MOSUNNY   81  56  42 S14       30.14F
HUNTER AAF     MOSUNNY   77  61  57 SE14      30.12F
FORT STEWART   PTSUNNY   78  59  52 SE10      30.11F
STATESBORO     CLOUDY    78  62  56 SE7       30.13F
SYLVANIA       CLOUDY   N/A N/A N/A S8        30.15S
CLAXTON        FAIR      79  59  51 SE5       30.13F

...CSRA...CENTRAL AND FAR SOUTHEAST GEORGIA...

CITY           SKY/WX    TMP DP  RH WIND       PRES   REMARKS
THOMSON        LGT RAIN  75  57  52 W7G21     30.16F
AUGUSTA-BUSH   PTSUNNY   79  57  46 S10       30.11F
AUGUSTA-DANIEL PTSUNNY   78  54  43 SE12G20   30.12F
SWAINSBORO     MOCLDY    81  54  39 S9G17     30.13F
VIDALIA        CLOUDY    79  55  44 S6        30.12F
EASTMAN        FAIR      80  38  21 W6        30.12F
HAZLEHURST     FAIR      80  60  49 SE5       30.11F
ALMA           CLOUDY    78  57  48 SE8       30.11F
WAYCROSS       CLOUDY    82  59  45 SW7       30.12S
JESUP          CLOUDY    81  52  36 SE6       30.12F
BAXLEY         CLOUDY    81  59  47 SE7       30.12F
BRUNSWICK      SUNNY     77  63  61 SE9G16    30.15F
SAINT SIMONS   SUNNY     74  62  66 SE16      30.15F

$$

SCZ027-028-034-036>038-045-046-048>050-GAZ119-141-262000-
...LAKE AND SUPPLEMENTAL COASTAL OBSERVATIONS...

STATION/POSITION TIME  TEMP    WIND        PRES    WAVE   SWELL
                       AIR SEA DIR/SP/G            HT/PER HT/PER/DIR
                 (UTC) (F)     (DEG/KT/KT) (MB)    (FT/S) (FT/S/D)
WINYAH BAY       1745   72     140/  9     1023.0
LAKE MURRAY      1820   70     180/  4/  8 1020.0
ACE BASIN NERRS  1745   75     180/  3     1022.0
FORT PULASKI     1842   73 63  160/  8/ 13 1021.6F
SAPELO ISLAND    1800   76     160/ 11     1022.0

$$

ANZ835-935-AMZ111-154-330-350-352-354-370-450-454-472-262000-
...C-MAN AND BUOY OBSERVATIONS...

STATION/POSITION TIME  TEMP    WIND        PRES    WAVE   SWELL
                       AIR SEA DIR/SP/G            HT/PER HT/PER/DIR
                 (UTC) (F)     (DEG/KT/KT) (MB)    (FT/S) (FT/S/D)
BUOY 41004       1850   72 73  140/ 10/ 12 1021.8F   4/ 9   3/140/ 9
BUOY 41008       1750   66 65  140/  4/  6 1021.9    4/ 9   3/100/ 9
FOLLY BEACH CMAN 1800   69     110/  3/  4 1023.2F
CAPERS NEARSHORE 1808   68     140/  4/  6 1022.5F
FRIPP NEARSHORE  1808   67 62  100/  4/  6 1022.0F


STATION/POSITION TIME  TEMP    WIND        PRES    WAVE   SWELL
                       AIR SEA DIR/SP/G            HT/PER HT/PER/DIR
                 (UTC) (F)     (DEG/KT/KT) (MB)    (FT/S) (FT/S/D)
5E ST. MARYS GA  1830      68                N/A     3/ 8
FRYING PAN BUOY  1850   71 75  140/ 12/ 17 1022.8F   4/ 9   2/160/ 9
BUOY 41025       1850   70 75  160/  8/ 10 1024.0    3/ 8   3/150/ 8
CAPE LOOKOUT NC  1800   66     100/  8/  8 1023.9F
BUOY 41002       1850   68 72   80/ 12/ 16 1023.2F   5/ 9   5/130/ 9
BUOY 41010       NOT AVBL
ST AUGUSTINE FL  1900   69 70   70/  9/  9 1021.3F


$$




USA.gov is the U.S. government's official web portal to all federal, state and local government web resources and services.